Terminal Aerodrome Forecast
Issued by NWS Mt. Holly, NJ

Home | Current Version | Previous Version | Text Only | Print | Product List | Glossary On
Versions: 1 2 3 4 5 6 7 8 9 10 11 12 13 14 15 16 17 18 19 20 21 22 23 24 25 26 27 28 29 30 31 32 33 34 35 36 37 38 39 40 41 42 43 44 45 46 47 48 49 50
000
FTAK31 PANC 260832 AAB
TAFABE
TAF AMD
PABE 260832Z 2609/2706 24008KT P6SM VCFG OVC004
      TEMPO 2609/2612 SCT004 BKN006 OVC012
     FM261200 24010KT P6SM VCFG SCT003 BKN006 OVC012
     FM261500 28011KT P6SM SCT005 BKN012 BKN025
     FM261800 27007KT P6SM BCFG FEW003 SCT025 BKN035
     FM270200 03005KT P6SM SCT035 BKN100=

USA.gov is the U.S. government's official web portal to all federal, state and local government web resources and services.